Content
SEND FEEDBACK

Canada Flag

ANCIENNE LORETTE, QUEBEC


Home > North America > Canada > Quebec
Elevation: 70 meters     Latitude: 46 48N     Longitude: 071 22W

WEATHER
 
SELECT A DAY
Number of Records: 215,370;   Date Range: 6/30/96 - 3/22/16
 
SHARE

PRINT THIS DATA

[ ← Previous Day ]
WEATHER ALMANAC - 20 SEPTEMBER, 2013
[ Next Day → ]
[ °F ]   °C
Weather ElementAverageHighLow
Temperature12.4 °C15 °C (1:00 am)9 °C (9:00 pm)
Dewpoint3.2 °C13 °C (5:00 am) (7:00 pm)
Humidity86.1 %100 % (10:00 pm)73 % (2:00 pm)
Wind Speed15.9 km/h25.9 km/h (5:00 pm)
Wind Gust37 km/h (12:37 pm)
Weather ElementAverage
Visibility20.3 km
Wind DirectionSSW (205.2 °)

Weather ElementTotal
Precipitation---
Heating Degree Days6.3 (Base 18.3)
Growing Degree Days2 (Base 10)
Averaged from 38 records on 20 September, 2013
WEATHER CONDITIONS BREAKOUT
WIND DIRECTION BREAKOUT
WEATHER BY HOUR - 20 SEPTEMBER, 2013
[ °F ]   °C
Local TimeTemperatureDewpointHumidityBarometerVisibilityWind DirectionWind SpeedGust SpeedPrecipitationEventsConditions
1:00 AM15 °C12 °C82 %1017.3 hPa24.1 kmWSW (240°)3.7 km/hOvercast
2:00 AM15 °C12 °C82 %1016.9 hPa24.1 kmSSE (150°)3.7 km/hOvercast
3:00 AM15 °C12 °C82 %1016.9 hPa24.1 kmWNW (300°)3.7 km/hMostly Cloudy
4:00 AM15 °C12 °C82 %1016.9 hPa24.1 kmWNW (300°)5.6 km/hOvercast
5:00 AM14 °C13 °C94 %1016.9 hPa24.1 kmSW (220°)5.6 km/hOvercast
5:00 AM13.9 °C12.8 °C92 %1016.3 hPaWSW (240°)3.7 km/h
6:00 AM15 °C13 °C88 %1017.6 hPa24.1 kmNW (320°)3.7 km/hMostly Cloudy
7:00 AM15 °C13 °C88 %1017.9 hPa24.1 kmCalmMostly Cloudy
8:00 AM13.3 °C11.7 °C86 %1017.9 hPaEast (90°)18.5 km/h
8:00 AM13 °C11 °C88 %1019 hPa12.9 kmEast (80°)24.1 km/hRainLight Rain
9:00 AM12 °C11 °C94 %1019.3 hPa12.9 kmENE (70°)11.1 km/hRainLight Rain
9:30 AM12 °C-17.8 °C16.1 kmENE (60°)20.4 km/hOvercast
10:00 AM13 °C11 °C88 %1019.3 hPa12.9 kmENE (70°)14.8 km/hOvercast
10:48 AM13 °C-17.8 °C19.3 kmEast (90°)16.7 km/hOvercast
11:00 AM12.8 °C11.1 °C84 %1018.6 hPaENE (70°)13 km/h
11:00 AM13 °C11 °C88 %1019.3 hPa19.3 kmEast (90°)22.2 km/hMostly Cloudy
12:00 PM14 °C10 °C77 %1019 hPa24.1 kmEast (80°)22.2 km/h33.3 km/hMostly Cloudy
12:37 PM14 °C-17.8 °C24.1 kmEast (80°)24.1 km/h37 km/hMostly Cloudy
1:00 PM14 °C10 °C77 %1018.6 hPa24.1 kmEast (80°)22.2 km/h35.2 km/hMostly Cloudy
2:00 PM14 °C10 °C77 %1017.9 hPa32.2 kmENE (70°)18.5 km/h29.6 km/hMostly Cloudy
2:00 PM14.4 °C11.1 °C73 %1016.9 hPaEast (80°)13 km/h
3:00 PM14 °C10 °C77 %1016.9 hPa40.2 kmEast (80°)22.2 km/h33.3 km/hMostly Cloudy
4:00 PM13 °C10 °C82 %1016.3 hPa40.2 kmENE (60°)24.1 km/h33.3 km/hMostly Cloudy
5:00 PM12.2 °C9.4 °C79 %1014.9 hPaEast (80°)14.8 km/h
5:00 PM12 °C9 °C82 %1015.9 hPa40.2 kmENE (60°)25.9 km/h37 km/hMostly Cloudy
5:11 PM12 °C-17.8 °C40.2 kmEast (80°)18.5 km/h29.6 km/hMostly Cloudy
5:22 PM12 °C-17.8 °C32.2 kmEast (80°)20.4 km/hMostly Cloudy
6:00 PM11 °C9 °C88 %1015.6 hPa24.1 kmEast (80°)18.5 km/hMostly Cloudy
6:37 PM10 °C-17.8 °C24.1 kmENE (60°)16.7 km/h33.3 km/hOvercast
7:00 PM10 °C9 °C94 %1015.2 hPa19.3 kmNE (50°)22.2 km/hOvercast
7:25 PM10 °C-17.8 °C16.1 kmNE (50°)20.4 km/hOvercast
8:00 PM10 °C9 °C94 %1015.6 hPa12.9 kmENE (70°)13 km/hOvercast
9:00 PM9 °C8 °C93 %1015.2 hPa9.7 kmENE (60°)24.1 km/h33.3 km/hOvercast
9:28 PM9 °C-17.8 °C3.2 kmENE (60°)22.2 km/h31.5 km/hOvercast
10:00 PM9 °C9 °C100 %1014.2 hPa1.3 kmENE (60°)20.4 km/hOvercast
10:29 PM9 °C-17.8 °C0 km10.4 (2013°)0 mmFog60
11:00 PM9 °C9 °C100 %1013.9 hPa0.6 kmENE (60°)16.7 km/hFogFog
11:24 PM9 °C-17.8 °C0 km6.9 (2013°)0 mmFog50
Hourly data recorded from CYQB, located 0 kilometers away from Ancienne Lorette, Quebec




STORIES FROM OUR PARTNERS